| time (UTC) | temp C | wind direction | speed KPH | gust KPH | rain 1hr cm | rain 24hr cm | rain mn cm | humidity % | barometer mb |
| 20260502231551 | 8 | 0.0 | 0.0 | 0.00 | 0.00 | 0.00 | 59 | 773.5 | |
| 20260502230041 | 9 | 0.0 | 0.0 | 0.00 | 0.00 | 0.00 | 58 | 772.8 | |
| 20260502224527 | 9 | 0.0 | 0.0 | 0.00 | 0.00 | 0.00 | 57 | 772.0 | |
| 20260502223015 | 10 | 0.0 | 0.0 | 0.00 | 0.00 | 0.00 | 56 | 773.7 | |
| 20260502221551 | 10 | 0.0 | 0.0 | 0.00 | 0.00 | 0.00 | 54 | 773.0 | |
| 20260502220042 | 10 | 0.0 | 0.0 | 0.00 | 0.00 | 0.00 | 52 | 773.8 | |
| 20260502214527 | 11 | 0.0 | 0.0 | 0.00 | 0.00 | 0.00 | 50 | 773.8 | |
| 20260502213016 | 11 | 0.0 | 0.0 | 0.00 | 0.00 | 0.00 | 47 | 773.8 | |
| 20260502211551 | 11 | 0.0 | 0.0 | 0.00 | 0.00 | 0.00 | 44 | 773.0 | |
| 20260502210042 | 11 | 0.0 | 0.0 | 0.00 | 0.00 | 0.00 | 42 | 772.3 | |
| 20260502204527 | 12 | 0.0 | 0.0 | 0.00 | 0.00 | 0.00 | 40 | 773.1 | |
| 20260502203016 | 12 | 0.0 | 0.0 | 0.00 | 0.00 | 0.00 | 37 | 774.0 | |
| 20260502201551 | 13 | 0.0 | 0.0 | 0.00 | 0.00 | 0.00 | 34 | 773.2 | |
| 20260502200055 | 13 | 0.0 | 0.0 | 0.00 | 0.00 | 0.00 | 30 | 773.2 | |
| 20260502194527 | 14 | 0.0 | 0.0 | 0.00 | 0.00 | 0.00 | 27 | 773.2 | |
| 20260502193105 | 15 | 0.0 | 0.0 | 0.00 | 0.00 | 0.00 | 24 | 772.4 | |
| 20260502191551 | 16 | 0.0 | 0.0 | 0.00 | 0.00 | 0.00 | 20 | 773.2 | |
| 20260502190041 | 16 | 0.0 | 0.0 | 0.00 | 0.00 | 0.00 | 15 | 772.4 | |
| 20260502184528 | 17 | 0.0 | 0.0 | 0.00 | 0.00 | 0.00 | 14 | 772.3 | |
| 20260502183015 | 18 | 0.0 | 0.0 | 0.00 | 0.00 | 0.00 | 10 | 772.3 | |
| 20260502181551 | 19 | 0.0 | 0.0 | 0.00 | 0.00 | 0.00 | 771.5 | ||
| 20260502163015 | 22 | 0.0 | 0.0 | 0.00 | 0.00 | 0.00 | 763.8 | ||
| 20260502161551 | 23 | 0.0 | 0.0 | 0.00 | 0.00 | 0.00 | 762.3 | ||
| 20260502151551 | 25 | 0.0 | 0.0 | 0.00 | 0.00 | 0.00 | 756.3 | ||
| 20260502130129 | 24 | 0.0 | 0.0 | 0.00 | 0.00 | 0.00 | 758.5 | ||
| 20260502123015 | 23 | 0.0 | 0.0 | 0.00 | 0.00 | 0.00 | 760.2 | ||
| 20260502121551 | 23 | 0.0 | 0.0 | 0.00 | 0.00 | 0.00 | 760.4 | ||
| 20260502120130 | 23 | 0.0 | 0.0 | 0.00 | 0.00 | 0.00 | 760.4 | ||
| 20260502114527 | 23 | 0.0 | 0.0 | 0.00 | 0.00 | 0.00 | 761.2 | ||
| 20260502113015 | 23 | 0.0 | 0.0 | 0.00 | 0.00 | 0.00 | 762.9 | ||
| 20260502111550 | 22 | 0.0 | 0.0 | 0.00 | 0.00 | 0.00 | 762.2 | ||
| 20260502110041 | 22 | 0.0 | 0.0 | 0.00 | 0.00 | 0.00 | 760.7 | ||
| 20260502104615 | 22 | 0.0 | 0.0 | 0.00 | 0.00 | 0.00 | 760.8 | ||
| 20260502103015 | 21 | 0.0 | 0.0 | 0.00 | 0.00 | 0.00 | 760.9 | ||
| 20260502101550 | 21 | 0.0 | 0.0 | 0.00 | 0.00 | 0.00 | 10 | 759.3 | |
| 20260502100129 | 21 | 0.0 | 0.0 | 0.00 | 0.00 | 0.00 | 12 | 759.4 | |
| 20260502070041 | 13 | 0.0 | 0.0 | 0.00 | 0.00 | 0.00 | 45 | 754.6 | |
| 20260502064526 | 13 | 0.0 | 0.0 | 0.00 | 0.00 | 0.00 | 48 | 752.3 | |
| 20260502063014 | 12 | 0.0 | 0.0 | 0.00 | 0.00 | 0.00 | 49 | 752.3 | |
| 20260502061551 | 12 | 0.0 | 0.0 | 0.00 | 0.00 | 0.00 | 52 | 751.5 | |
| 20260502060040 | 11 | 0.0 | 0.0 | 0.00 | 0.00 | 0.00 | 61 | 750.0 | |
| 20260502054526 | 9 | 0.0 | 0.0 | 0.00 | 0.00 | 0.00 | 62 | 750.8 | |
| 20260502053105 | 8 | 0.0 | 0.0 | 0.00 | 0.00 | 0.00 | 64 | 750.8 | |
| 20260502051550 | 7 | 0.0 | 0.0 | 0.00 | 0.00 | 0.00 | 66 | 750.8 | |
| 20260502050040 | 7 | 0.0 | 0.0 | 0.00 | 0.00 | 0.00 | 68 | 749.2 | |
| 20260502044526 | 6 | 0.0 | 0.0 | 0.00 | 0.00 | 0.00 | 69 | 744.5 | |
| 20260502043014 | 5 | 0.0 | 0.0 | 0.00 | 0.00 | 0.00 | 68 | 741.3 | |
| 20260502041550 | 5 | 0.0 | 0.0 | 0.00 | 0.00 | 0.00 | 68 | 742.0 | |
| 20260502040129 | 5 | 0.0 | 0.0 | 0.00 | 0.00 | 0.00 | 67 | 741.3 | |
| 20260502034526 | 5 | 0.0 | 0.0 | 0.00 | 0.00 | 0.00 | 67 | 742.1 | |
| 20260502033014 | 5 | 0.0 | 0.0 | 0.00 | 0.00 | 0.00 | 66 | 742.0 | |
| 20260502031726 | 6 | 0.0 | 0.0 | 0.00 | 0.00 | 0.00 | 66 | 743.5 | |
| 20260502030040 | 6 | 0.0 | 0.0 | 0.00 | 0.00 | 0.00 | 66 | 742.8 | |
| 20260502024905 | 6 | 0.0 | 0.0 | 0.00 | 0.00 | 0.00 | 65 | 743.6 | |
| 20260502023014 | 6 | 0.0 | 0.0 | 0.00 | 0.00 | 0.00 | 64 | 744.4 | |
| 20260502021550 | 6 | 0.0 | 0.0 | 0.00 | 0.00 | 0.00 | 63 | 744.5 | |
| 20260502020128 | 6 | 0.0 | 0.0 | 0.00 | 0.00 | 0.00 | 63 | 746.0 | |
| 20260502014839 | 6 | 0.0 | 0.0 | 0.00 | 0.00 | 0.00 | 62 | 746.0 | |
| 20260502013014 | 7 | 0.0 | 0.0 | 0.00 | 0.00 | 0.00 | 61 | 747.6 | |
| 20260502011550 | 7 | 0.0 | 0.0 | 0.00 | 0.00 | 0.00 | 61 | 748.4 | |
| 20260502010128 | 7 | 0.0 | 0.0 | 0.00 | 0.00 | 0.00 | 60 | 747.6 | |
| 20260502004706 | 7 | 0.0 | 0.0 | 0.00 | 0.00 | 0.00 | 60 | 747.6 | |
| 20260502003014 | 7 | 0.0 | 0.0 | 0.00 | 0.00 | 0.00 | 60 | 748.5 | |
| 20260502001550 | 7 | 0.0 | 0.0 | 0.00 | 0.00 | 0.00 | 59 | 749.3 | |
| 20260502000041 | 7 | 0.0 | 0.0 | 0.00 | 0.00 | 0.00 | 58 | 749.3 | |
| 20260501234705 | 8 | 0.0 | 0.0 | 0.00 | 0.00 | 0.00 | 57 | 751.7 | |
| 20260501233014 | 8 | 0.0 | 0.0 | 0.00 | 0.00 | 0.00 | 56 | 752.5 |